Time,TemperatureF,DewpointF,PressureIn,WindDirection,WindDirectionDegrees,WindSpeedMPH,WindSpeedGustMPH,Humidity,HourlyPrecipIn,Conditions,Clouds,dailyrainin,SoftwareType,DateUTC
2013-10-20 00:01:00,48.7,40.1,29.66,SW,235,3.6,71.6,72,0.00,,,0.00,WUHU21623XXSP,2013-10-20 04:01:00,
2013-10-20 00:06:00,48.7,39.7,29.66,West,271,1.6,71.6,71,0.00,,,0.00,WUHU21623XXSP,2013-10-20 04:06:00,
2013-10-20 00:11:00,48.9,39.9,29.66,South,177,4.9,19.2,71,0.00,,,0.00,WUHU21623XXSP,2013-10-20 04:11:00,
2013-10-20 00:16:00,48.9,40.2,29.67,SW,234,2.7,19.2,72,0.00,,,0.00,WUHU21623XXSP,2013-10-20 04:16:00,
2013-10-20 00:21:00,48.7,40.4,29.66,South,182,18.9,72.5,73,0.00,,,0.00,WUHU21623XXSP,2013-10-20 04:21:00,
2013-10-20 00:26:00,48.7,40.4,29.66,SE,141,12.3,72.5,73,0.00,,,0.00,WUHU21623XXSP,2013-10-20 04:26:00,
2013-10-20 00:31:00,48.4,40.4,29.66,SSW,210,3.1,65.5,74,0.00,,,0.00,WUHU21623XXSP,2013-10-20 04:31:00,
2013-10-20 00:36:00,48.0,40.4,29.66,WSW,247,0.0,5.4,75,0.00,,,0.00,WUHU21623XXSP,2013-10-20 04:36:00,
2013-10-20 00:41:00,48.0,40.4,29.66,WSW,247,2.7,6.0,75,0.00,,,0.00,WUHU21623XXSP,2013-10-20 04:41:00,
2013-10-20 00:46:00,47.7,40.4,29.66,SSW,213,4.4,9.6,76,0.00,,,0.00,WUHU21623XXSP,2013-10-20 04:46:00,
2013-10-20 00:51:00,47.3,40.1,29.66,SW,218,2.6,9.6,76,0.00,,,0.00,WUHU21623XXSP,2013-10-20 04:51:00,
2013-10-20 00:56:00,47.1,39.9,29.66,SSW,202,5.1,7.2,76,0.00,,,0.00,WUHU21623XXSP,2013-10-20 04:56:00,
2013-10-20 01:01:00,46.9,40.1,29.66,South,169,1.3,7.2,77,0.00,,,0.00,WUHU21623XXSP,2013-10-20 05:01:00,
2013-10-20 01:06:00,46.8,39.9,29.66,South,180,2.5,2.9,77,0.00,,,0.00,WUHU21623XXSP,2013-10-20 05:06:00,
2013-10-20 01:11:00,46.6,40.1,29.66,SW,221,1.9,5.8,78,0.00,,,0.00,WUHU21623XXSP,2013-10-20 05:11:00,
2013-10-20 01:16:00,46.6,39.8,29.65,ENE,67,1.1,66.9,77,0.00,,,0.00,WUHU21623XXSP,2013-10-20 05:16:00,
2013-10-20 01:21:00,46.2,39.8,29.66,WSW,247,0.0,66.9,78,0.00,,,0.00,WUHU21623XXSP,2013-10-20 05:21:00,
2013-10-20 01:26:00,46.2,39.8,29.66,South,180,0.0,49.4,78,0.00,,,0.00,WUHU21623XXSP,2013-10-20 05:26:00,
2013-10-20 01:31:00,46.0,39.6,29.65,SSW,202,0.0,49.4,78,0.00,,,0.00,WUHU21623XXSP,2013-10-20 05:31:00,
2013-10-20 01:36:00,45.7,39.6,29.65,SSW,204,1.6,2.5,79,0.00,,,0.00,WUHU21623XXSP,2013-10-20 05:36:00,
2013-10-20 01:41:00,45.7,39.6,29.65,SSW,203,2.0,4.0,79,0.00,,,0.00,WUHU21623XXSP,2013-10-20 05:41:00,
2013-10-20 01:46:00,45.5,39.4,29.65,SSW,200,1.4,4.0,79,0.00,,,0.00,WUHU21623XXSP,2013-10-20 05:46:00,
2013-10-20 01:51:00,45.3,39.6,29.65,SSW,195,1.2,2.5,80,0.00,,,0.00,WUHU21623XXSP,2013-10-20 05:51:00,
2013-10-20 01:56:00,45.1,39.4,29.65,South,188,1.9,5.4,80,0.00,,,0.00,WUHU21623XXSP,2013-10-20 05:56:00,
2013-10-20 02:01:00,45.1,39.4,29.65,ESE,112,0.0,5.4,80,0.00,,,0.00,WUHU21623XXSP,2013-10-20 06:01:00,
2013-10-20 02:06:00,45.1,39.7,29.65,South,180,2.9,7.8,81,0.00,,,0.00,WUHU21623XXSP,2013-10-20 06:06:00,
2013-10-20 02:11:00,45.1,39.7,29.65,South,169,2.1,7.8,81,0.00,,,0.00,WUHU21623XXSP,2013-10-20 06:11:00,
2013-10-20 02:16:00,45.0,39.5,29.65,SE,141,1.0,5.1,81,0.00,,,0.00,WUHU21623XXSP,2013-10-20 06:16:00,
2013-10-20 02:21:00,45.0,39.5,29.65,SSE,150,1.0,5.1,81,0.00,,,0.00,WUHU21623XXSP,2013-10-20 06:21:00,
2013-10-20 02:26:00,45.0,39.5,29.65,SSW,202,1.6,4.0,81,0.00,,,0.00,WUHU21623XXSP,2013-10-20 06:26:00,
2013-10-20 02:31:00,45.0,39.5,29.65,SSW,205,2.1,3.4,81,0.00,,,0.00,WUHU21623XXSP,2013-10-20 06:31:00,
2013-10-20 02:36:00,45.0,39.5,29.65,SW,224,1.9,4.3,81,0.00,,,0.00,WUHU21623XXSP,2013-10-20 06:36:00,
2013-10-20 02:41:00,45.0,39.5,29.65,South,180,6.7,9.4,81,0.00,,,0.00,WUHU21623XXSP,2013-10-20 06:41:00,
2013-10-20 02:46:00,45.1,39.7,29.65,SSW,199,1.5,9.4,81,0.00,,,0.00,WUHU21623XXSP,2013-10-20 06:46:00,
2013-10-20 02:51:00,45.3,39.9,29.65,SSW,206,3.4,7.2,81,0.00,,,0.00,WUHU21623XXSP,2013-10-20 06:51:00,
2013-10-20 02:56:00,45.5,40.0,29.65,SSW,193,3.1,7.6,81,0.00,,,0.00,WUHU21623XXSP,2013-10-20 06:56:00,
2013-10-20 03:01:00,45.5,40.0,29.65,ESE,112,0.0,7.6,81,0.00,,,0.00,WUHU21623XXSP,2013-10-20 07:01:00,
2013-10-20 03:06:00,45.5,40.0,29.65,SSW,202,2.0,3.6,81,0.00,,,0.00,WUHU21623XXSP,2013-10-20 07:06:00,
2013-10-20 03:11:00,45.7,40.2,29.66,South,180,4.0,5.4,81,0.02,,,0.02,WUHU21623XXSP,2013-10-20 07:11:00,
2013-10-20 03:16:00,45.7,40.2,29.65,SSW,200,1.3,7.2,81,0.02,,,0.02,WUHU21623XXSP,2013-10-20 07:16:00,
2013-10-20 03:21:00,45.7,40.5,29.65,SSW,202,2.5,7.2,82,0.02,,,0.02,WUHU21623XXSP,2013-10-20 07:21:00,
2013-10-20 03:26:00,45.5,40.4,29.65,SSW,194,2.2,6.9,82,0.02,,,0.02,WUHU21623XXSP,2013-10-20 07:26:00,
2013-10-20 03:31:00,45.5,40.4,29.65,South,180,4.5,10.5,82,0.02,,,0.02,WUHU21623XXSP,2013-10-20 07:31:00,
2013-10-20 03:36:00,45.5,40.4,29.65,South,180,5.1,10.5,82,0.02,,,0.02,WUHU21623XXSP,2013-10-20 07:36:00,
2013-10-20 03:41:00,45.5,40.0,29.65,SSW,202,4.5,9.2,81,0.02,,,0.02,WUHU21623XXSP,2013-10-20 07:41:00,
2013-10-20 03:46:00,45.5,40.0,29.65,SW,225,5.8,16.1,81,0.02,,,0.02,WUHU21623XXSP,2013-10-20 07:46:00,
2013-10-20 03:51:00,45.5,40.0,29.65,SW,225,3.1,16.1,81,0.02,,,0.02,WUHU21623XXSP,2013-10-20 07:51:00,
2013-10-20 03:56:00,45.5,40.0,29.65,SSW,202,8.1,8.1,81,0.02,,,0.02,WUHU21623XXSP,2013-10-20 07:56:00,
2013-10-20 04:01:00,45.5,40.0,29.65,SW,225,4.7,8.1,81,0.02,,,0.02,WUHU21623XXSP,2013-10-20 08:01:00,
2013-10-20 04:06:00,45.7,40.2,29.66,SSW,201,1.3,7.6,81,0.02,,,0.02,WUHU21623XXSP,2013-10-20 08:06:00,
2013-10-20 04:11:00,45.7,40.2,29.66,South,180,0.9,6.0,81,0.00,,,0.02,WUHU21623XXSP,2013-10-20 08:11:00,
2013-10-20 04:16:00,45.7,40.2,29.65,SW,225,0.0,81.9,81,0.00,,,0.02,WUHU21623XXSP,2013-10-20 08:16:00,
2013-10-20 04:21:00,45.7,40.2,29.65,SSW,202,0.0,81.9,81,0.00,,,0.02,WUHU21623XXSP,2013-10-20 08:21:00,
2013-10-20 04:26:00,45.7,40.2,29.65,WNW,292,0.0,2.5,81,0.00,,,0.02,WUHU21623XXSP,2013-10-20 08:26:00,
2013-10-20 04:31:00,45.7,40.5,29.65,SSW,211,3.2,6.9,82,0.00,,,0.02,WUHU21623XXSP,2013-10-20 08:31:00,
2013-10-20 04:36:00,45.7,40.2,29.65,WNW,292,0.0,6.9,81,0.00,,,0.02,WUHU21623XXSP,2013-10-20 08:36:00,
2013-10-20 04:41:00,45.7,40.2,29.65,SSW,202,1.1,5.1,81,0.00,,,0.02,WUHU21623XXSP,2013-10-20 08:41:00,
2013-10-20 04:46:00,45.7,40.2,29.65,SW,223,2.3,4.3,81,0.00,,,0.02,WUHU21623XXSP,2013-10-20 08:46:00,
2013-10-20 04:51:00,45.7,40.2,29.65,SW,231,4.8,14.1,81,0.00,,,0.02,WUHU21623XXSP,2013-10-20 08:51:00,
2013-10-20 04:56:00,45.7,39.9,29.65,WSW,253,5.6,46.5,80,0.00,,,0.02,WUHU21623XXSP,2013-10-20 08:56:00,
2013-10-20 05:01:00,45.7,39.9,29.65,SSW,202,2.7,46.5,80,0.00,,,0.02,WUHU21623XXSP,2013-10-20 09:01:00,
2013-10-20 05:06:00,45.7,39.9,29.65,SW,215,2.8,10.5,80,0.00,,,0.02,WUHU21623XXSP,2013-10-20 09:06:00,
2013-10-20 05:11:00,45.5,39.7,29.65,SSW,202,6.3,33.1,80,0.00,,,0.02,WUHU21623XXSP,2013-10-20 09:11:00,
2013-10-20 05:16:00,45.5,39.7,29.65,South,180,2.7,33.1,80,0.00,,,0.02,WUHU21623XXSP,2013-10-20 09:16:00,
2013-10-20 05:21:00,45.3,39.6,29.65,SW,225,1.8,45.2,80,0.00,,,0.02,WUHU21623XXSP,2013-10-20 09:21:00,
2013-10-20 05:26:00,45.1,39.4,29.65,SSW,197,4.3,45.2,80,0.00,,,0.02,WUHU21623XXSP,2013-10-20 09:26:00,
2013-10-20 05:31:00,45.1,39.4,29.66,SSW,198,4.0,20.1,80,0.00,,,0.02,WUHU21623XXSP,2013-10-20 09:31:00,
2013-10-20 05:36:00,45.1,39.4,29.66,SSW,202,4.9,20.1,80,0.00,,,0.02,WUHU21623XXSP,2013-10-20 09:36:00,
2013-10-20 05:41:00,45.0,39.5,29.66,West,270,2.7,7.2,81,0.00,,,0.02,WUHU21623XXSP,2013-10-20 09:41:00,
2013-10-20 05:46:00,45.0,39.5,29.65,SSW,203,1.9,7.2,81,0.00,,,0.02,WUHU21623XXSP,2013-10-20 09:46:00,
2013-10-20 05:51:00,44.8,39.3,29.66,South,180,1.3,5.8,81,0.00,,,0.02,WUHU21623XXSP,2013-10-20 09:51:00,
2013-10-20 05:56:00,44.6,39.1,29.66,SW,223,11.4,56.4,81,0.00,,,0.02,WUHU21623XXSP,2013-10-20 09:56:00,
2013-10-20 06:01:00,44.4,38.7,29.66,SSW,206,1.9,56.4,80,0.00,,,0.02,WUHU21623XXSP,2013-10-20 10:01:00,
2013-10-20 06:06:00,44.4,39.0,29.66,SSW,208,2.3,4.3,81,0.00,,,0.02,WUHU21623XXSP,2013-10-20 10:06:00,
2013-10-20 06:11:00,44.2,38.8,29.66,WSW,247,3.1,4.3,81,0.00,,,0.02,WUHU21623XXSP,2013-10-20 10:11:00,
2013-10-20 06:16:00,44.2,38.8,29.66,South,182,7.8,51.2,81,0.00,,,0.02,WUHU21623XXSP,2013-10-20 10:16:00,
2013-10-20 06:21:00,44.1,38.6,29.66,South,180,0.9,51.2,81,0.00,,,0.02,WUHU21623XXSP,2013-10-20 10:21:00,
2013-10-20 06:26:00,43.9,38.7,29.65,SSW,202,0.9,3.4,82,0.00,,,0.02,WUHU21623XXSP,2013-10-20 10:26:00,
2013-10-20 06:31:00,43.9,38.7,29.66,SSW,202,2.3,2.7,82,0.00,,,0.02,WUHU21623XXSP,2013-10-20 10:31:00,
2013-10-20 06:36:00,43.9,38.7,29.66,South,180,1.6,2.7,82,0.00,,,0.02,WUHU21623XXSP,2013-10-20 10:36:00,
2013-10-20 06:41:00,43.9,38.7,29.66,SW,225,0.0,4.7,82,0.00,,,0.02,WUHU21623XXSP,2013-10-20 10:41:00,
2013-10-20 06:46:00,43.7,38.6,29.66,SSW,202,2.2,4.7,82,0.00,,,0.02,WUHU21623XXSP,2013-10-20 10:46:00,
2013-10-20 06:51:00,43.7,38.6,29.66,SSW,201,2.3,3.4,82,0.00,,,0.02,WUHU21623XXSP,2013-10-20 10:51:00,
2013-10-20 06:56:00,43.5,38.4,29.66,SSW,202,2.9,4.7,82,0.00,,,0.02,WUHU21623XXSP,2013-10-20 10:56:00,
2013-10-20 07:01:00,43.5,38.4,29.66,SSW,193,2.5,4.7,82,0.00,,,0.02,WUHU21623XXSP,2013-10-20 11:01:00,
2013-10-20 07:06:00,43.3,38.2,29.66,South,184,1.7,4.0,82,0.00,,,0.02,WUHU21623XXSP,2013-10-20 11:06:00,
2013-10-20 07:11:00,43.3,38.2,29.66,South,169,1.7,4.7,82,0.00,,,0.02,WUHU21623XXSP,2013-10-20 11:11:00,
2013-10-20 07:16:00,43.3,38.2,29.66,South,180,2.0,4.9,82,0.00,,,0.02,WUHU21623XXSP,2013-10-20 11:16:00,
2013-10-20 07:21:00,43.2,38.0,29.67,SSW,193,1.1,4.9,82,0.00,,,0.02,WUHU21623XXSP,2013-10-20 11:21:00,
2013-10-20 07:26:00,43.0,37.8,29.67,SSW,200,1.9,2.7,82,0.00,,,0.02,WUHU21623XXSP,2013-10-20 11:26:00,
2013-10-20 07:31:00,43.0,38.1,29.67,SSE,157,2.5,2.7,83,0.00,,,0.02,WUHU21623XXSP,2013-10-20 11:31:00,
2013-10-20 07:36:00,43.0,38.1,29.67,SSW,202,1.7,2.9,83,0.00,,,0.02,WUHU21623XXSP,2013-10-20 11:36:00,
2013-10-20 07:41:00,42.6,37.8,29.67,South,186,1.9,4.3,83,0.00,,,0.02,WUHU21623XXSP,2013-10-20 11:41:00,
2013-10-20 07:46:00,42.6,37.8,29.67,South,174,2.2,4.3,83,0.00,,,0.02,WUHU21623XXSP,2013-10-20 11:46:00,
2013-10-20 07:51:00,42.6,37.8,29.67,SSW,195,1.0,3.8,83,0.00,,,0.02,WUHU21623XXSP,2013-10-20 11:51:00,
2013-10-20 07:56:00,42.6,37.8,29.67,South,180,5.6,5.6,83,0.00,,,0.02,WUHU21623XXSP,2013-10-20 11:56:00,
2013-10-20 08:01:00,42.6,37.8,29.67,South,185,1.8,5.6,83,0.00,,,0.02,WUHU21623XXSP,2013-10-20 12:01:00,
2013-10-20 08:06:00,42.6,37.8,29.68,SSE,149,1.7,5.6,83,0.00,,,0.02,WUHU21623XXSP,2013-10-20 12:06:00,
2013-10-20 08:11:00,42.6,37.8,29.68,SSW,195,1.8,3.8,83,0.00,,,0.02,WUHU21623XXSP,2013-10-20 12:11:00,
2013-10-20 08:16:00,42.6,37.8,29.68,SSW,202,0.0,3.8,83,0.00,,,0.02,WUHU21623XXSP,2013-10-20 12:16:00,
2013-10-20 08:21:00,42.6,37.8,29.68,SSW,206,1.9,4.3,83,0.00,,,0.02,WUHU21623XXSP,2013-10-20 12:21:00,
2013-10-20 08:26:00,42.6,37.8,29.68,South,183,2.5,4.3,83,0.00,,,0.02,WUHU21623XXSP,2013-10-20 12:26:00,
2013-10-20 08:31:00,42.6,38.1,29.68,SSW,200,2.2,4.3,84,0.00,,,0.02,WUHU21623XXSP,2013-10-20 12:31:00,
2013-10-20 08:36:00,42.6,38.1,29.68,SSW,201,1.7,4.3,84,0.00,,,0.02,WUHU21623XXSP,2013-10-20 12:36:00,
2013-10-20 08:41:00,42.8,38.3,29.69,South,180,2.1,7.6,84,0.00,,,0.02,WUHU21623XXSP,2013-10-20 12:41:00,
2013-10-20 08:46:00,43.0,38.4,29.69,SSW,202,2.9,7.6,84,0.00,,,0.02,WUHU21623XXSP,2013-10-20 12:46:00,
2013-10-20 08:51:00,43.0,38.4,29.69,SSW,202,3.4,4.7,84,0.00,,,0.02,WUHU21623XXSP,2013-10-20 12:51:00,
2013-10-20 08:56:00,43.0,38.4,29.70,SSW,211,2.0,4.7,84,0.00,,,0.02,WUHU21623XXSP,2013-10-20 12:56:00,
2013-10-20 09:01:00,43.2,38.6,29.70,SSW,202,2.9,4.0,84,0.00,,,0.02,WUHU21623XXSP,2013-10-20 13:01:00,
2013-10-20 09:06:00,43.3,38.8,29.70,SSW,196,1.0,3.6,84,0.00,,,0.02,WUHU21623XXSP,2013-10-20 13:06:00,
2013-10-20 09:11:00,43.3,38.8,29.71,South,180,3.8,3.8,84,0.00,,,0.02,WUHU21623XXSP,2013-10-20 13:11:00,
2013-10-20 09:20:00,43.5,39.0,29.71,SSW,203,2.1,6.3,84,0.00,,,0.02,WUHU21623XXSP,2013-10-20 13:20:00,
2013-10-20 09:25:00,43.7,39.5,29.71,SSW,206,2.5,6.3,85,0.00,,,0.02,WUHU21623XXSP,2013-10-20 13:25:00,
2013-10-20 09:30:00,44.2,40.0,29.71,South,184,3.8,5.8,85,0.00,,,0.02,WUHU21623XXSP,2013-10-20 13:30:00,
2013-10-20 09:35:00,44.4,40.2,29.71,SSW,210,3.2,8.1,85,0.00,,,0.02,WUHU21623XXSP,2013-10-20 13:35:00,
2013-10-20 09:41:00,44.6,40.1,29.71,South,174,2.7,8.1,84,0.00,,,0.02,WUHU21623XXSP,2013-10-20 13:41:00,
2013-10-20 09:46:00,44.8,40.2,29.71,SSE,157,3.6,6.5,84,0.00,,,0.02,WUHU21623XXSP,2013-10-20 13:46:00,
2013-10-20 09:51:00,45.0,40.7,29.71,SSW,194,1.4,5.4,85,0.00,,,0.02,WUHU21623XXSP,2013-10-20 13:51:00,
2013-10-20 09:56:00,45.3,41.1,29.71,SSW,209,1.3,6.5,85,0.00,,,0.02,WUHU21623XXSP,2013-10-20 13:56:00,
2013-10-20 10:01:00,45.5,41.3,29.71,South,180,2.2,6.5,85,0.00,,,0.02,WUHU21623XXSP,2013-10-20 14:01:00,
2013-10-20 10:06:00,46.0,41.5,29.71,South,190,3.0,8.3,84,0.00,,,0.02,WUHU21623XXSP,2013-10-20 14:06:00,
2013-10-20 10:11:00,46.6,42.0,29.71,South,185,1.8,8.3,84,0.00,,,0.02,WUHU21623XXSP,2013-10-20 14:11:00,
2013-10-20 10:16:00,46.9,42.4,29.71,SSW,202,3.3,7.8,84,0.00,,,0.02,WUHU21623XXSP,2013-10-20 14:16:00,
2013-10-20 10:21:00,47.3,42.7,29.71,SE,135,2.0,6.5,84,0.00,,,0.02,WUHU21623XXSP,2013-10-20 14:21:00,
2013-10-20 10:26:00,47.8,42.9,29.72,SSW,202,4.0,7.6,83,0.00,,,0.02,WUHU21623XXSP,2013-10-20 14:26:00,
2013-10-20 10:31:00,48.0,42.7,29.73,South,186,2.1,8.7,82,0.00,,,0.02,WUHU21623XXSP,2013-10-20 14:31:00,
2013-10-20 10:36:00,48.2,42.9,29.73,SW,216,3.1,8.7,82,0.00,,,0.02,WUHU21623XXSP,2013-10-20 14:36:00,
2013-10-20 10:41:00,48.6,42.7,29.72,SSW,213,2.5,8.7,81,0.00,,,0.02,WUHU21623XXSP,2013-10-20 14:41:00,
2013-10-20 10:46:00,48.7,43.1,29.72,SSW,202,5.4,6.0,81,0.00,,,0.02,WUHU21623XXSP,2013-10-20 14:46:00,
2013-10-20 10:51:00,48.7,43.1,29.72,SW,225,6.5,8.7,81,0.00,,,0.02,WUHU21623XXSP,2013-10-20 14:51:00,
2013-10-20 10:56:00,48.7,43.1,29.72,South,180,3.4,8.7,81,0.00,,,0.02,WUHU21623XXSP,2013-10-20 14:56:00,
2013-10-20 11:01:00,48.9,43.3,29.73,SSW,195,2.6,5.8,81,0.00,,,0.02,WUHU21623XXSP,2013-10-20 15:01:00,
2013-10-20 11:06:00,49.5,43.5,29.72,SSW,210,4.5,8.9,80,0.00,,,0.02,WUHU21623XXSP,2013-10-20 15:06:00,
2013-10-20 11:11:00,49.6,43.7,29.72,SW,218,3.2,8.9,80,0.00,,,0.02,WUHU21623XXSP,2013-10-20 15:11:00,
2013-10-20 11:16:00,49.8,43.9,29.73,SW,225,0.9,9.2,80,0.00,,,0.02,WUHU21623XXSP,2013-10-20 15:16:00,
2013-10-20 11:21:00,50.2,43.9,29.72,SW,225,2.0,9.2,79,0.00,,,0.02,WUHU21623XXSP,2013-10-20 15:21:00,
2013-10-20 11:26:00,50.5,44.3,29.73,WSW,250,2.4,7.4,79,0.00,,,0.02,WUHU21623XXSP,2013-10-20 15:26:00,
2013-10-20 11:31:00,50.7,44.4,29.73,SSW,202,3.8,7.6,79,0.00,,,0.02,WUHU21623XXSP,2013-10-20 15:31:00,
2013-10-20 11:36:00,50.9,44.3,29.73,SSW,202,4.3,9.4,78,0.00,,,0.02,WUHU21623XXSP,2013-10-20 15:36:00,
2013-10-20 11:41:00,51.1,44.5,29.73,SSW,211,3.7,9.4,78,0.00,,,0.02,WUHU21623XXSP,2013-10-20 15:41:00,
2013-10-20 11:46:00,51.6,44.7,29.73,SW,225,2.9,5.8,77,0.00,,,0.02,WUHU21623XXSP,2013-10-20 15:46:00,
2013-10-20 11:51:00,52.0,44.7,29.73,WSW,252,1.3,6.3,76,0.00,,,0.02,WUHU21623XXSP,2013-10-20 15:51:00,
2013-10-20 11:56:00,52.5,45.2,29.73,South,180,2.0,9.2,76,0.00,,,0.02,WUHU21623XXSP,2013-10-20 15:56:00,
2013-10-20 12:01:00,52.9,45.5,29.74,SSW,206,2.9,9.2,76,0.00,,,0.02,WUHU21623XXSP,2013-10-20 16:01:00,
2013-10-20 12:06:00,53.2,45.2,29.74,SSW,209,3.4,8.3,74,0.00,,,0.02,WUHU21623XXSP,2013-10-20 16:06:00,
2013-10-20 12:11:00,53.2,45.2,29.74,SSW,211,3.3,7.8,74,0.00,,,0.02,WUHU21623XXSP,2013-10-20 16:11:00,
2013-10-20 12:16:00,53.4,45.0,29.73,SSW,208,2.4,7.8,73,0.00,,,0.02,WUHU21623XXSP,2013-10-20 16:16:00,
2013-10-20 12:21:00,53.4,45.3,29.73,SSW,213,1.9,7.8,74,0.00,,,0.02,WUHU21623XXSP,2013-10-20 16:21:00,
2013-10-20 12:26:00,53.6,44.8,29.73,West,263,2.2,7.4,72,0.00,,,0.02,WUHU21623XXSP,2013-10-20 16:26:00,
2013-10-20 12:31:00,53.8,44.9,29.73,SSW,203,5.5,10.5,72,0.00,,,0.02,WUHU21623XXSP,2013-10-20 16:31:00,
2013-10-20 12:36:00,54.3,45.5,29.73,South,172,2.7,10.5,72,0.00,,,0.02,WUHU21623XXSP,2013-10-20 16:36:00,
2013-10-20 12:41:00,54.5,45.7,29.73,SSW,200,3.8,7.6,72,0.00,,,0.02,WUHU21623XXSP,2013-10-20 16:41:00,
2013-10-20 12:46:00,54.7,45.5,29.73,South,179,2.0,7.6,71,0.00,,,0.02,WUHU21623XXSP,2013-10-20 16:46:00,
2013-10-20 12:51:00,54.7,44.7,29.73,NW,305,1.3,4.9,69,0.00,,,0.02,WUHU21623XXSP,2013-10-20 16:51:00,
2013-10-20 12:56:00,54.7,44.3,29.72,WNW,292,1.2,5.8,68,0.00,,,0.02,WUHU21623XXSP,2013-10-20 16:56:00,
2013-10-20 13:01:00,55.0,45.1,29.73,SSW,197,2.5,5.8,69,0.00,,,0.02,WUHU21623XXSP,2013-10-20 17:01:00,
2013-10-20 13:06:00,55.6,45.2,29.71,South,175,2.0,4.5,68,0.00,,,0.02,WUHU21623XXSP,2013-10-20 17:06:00,
2013-10-20 13:11:00,55.9,44.7,29.71,SSW,207,2.9,8.9,66,0.00,,,0.02,WUHU21623XXSP,2013-10-20 17:11:00,
2013-10-20 13:16:00,56.3,44.6,29.71,SSW,202,3.4,8.9,65,0.00,,,0.02,WUHU21623XXSP,2013-10-20 17:16:00,
2013-10-20 13:21:00,56.5,44.8,29.71,South,175,1.4,7.2,65,0.00,,,0.02,WUHU21623XXSP,2013-10-20 17:21:00,
2013-10-20 13:26:00,57.0,45.3,29.71,SSW,194,1.6,7.2,65,0.00,,,0.02,WUHU21623XXSP,2013-10-20 17:26:00,
2013-10-20 13:31:00,57.4,45.7,29.71,South,180,7.6,7.6,65,0.00,,,0.02,WUHU21623XXSP,2013-10-20 17:31:00,
2013-10-20 13:36:00,57.9,45.4,29.71,South,189,4.9,8.5,63,0.00,,,0.02,WUHU21623XXSP,2013-10-20 17:36:00,
2013-10-20 13:41:00,58.3,45.3,29.71,SSW,194,3.3,8.5,62,0.00,,,0.02,WUHU21623XXSP,2013-10-20 17:41:00,
2013-10-20 13:46:00,58.8,45.0,29.71,NW,309,1.4,7.8,60,0.00,,,0.02,WUHU21623XXSP,2013-10-20 17:46:00,
2013-10-20 13:51:00,58.8,45.4,29.71,SSW,201,2.9,4.7,61,0.00,,,0.02,WUHU21623XXSP,2013-10-20 17:51:00,
2013-10-20 13:56:00,58.8,45.0,29.70,South,181,3.1,6.5,60,0.00,,,0.02,WUHU21623XXSP,2013-10-20 17:56:00,
2013-10-20 14:01:00,59.2,45.3,29.70,SSW,202,4.3,6.5,60,0.00,,,0.02,WUHU21623XXSP,2013-10-20 18:01:00,
2013-10-20 14:06:00,59.2,44.8,29.70,SSW,192,1.6,7.6,59,0.00,,,0.02,WUHU21623XXSP,2013-10-20 18:06:00,
2013-10-20 14:11:00,59.0,44.7,29.70,WSW,238,1.8,7.6,59,0.00,,,0.02,WUHU21623XXSP,2013-10-20 18:11:00,
2013-10-20 14:16:00,58.8,44.5,29.69,SSW,202,8.7,8.7,59,0.00,,,0.02,WUHU21623XXSP,2013-10-20 18:16:00,
2013-10-20 14:21:00,58.5,43.7,29.69,SE,135,2.7,8.7,58,0.00,,,0.02,WUHU21623XXSP,2013-10-20 18:21:00,
2013-10-20 14:26:00,58.3,43.6,29.68,SE,135,1.5,6.5,58,0.00,,,0.02,WUHU21623XXSP,2013-10-20 18:26:00,
2013-10-20 14:31:00,58.1,43.4,29.68,SSW,202,3.1,6.5,58,0.00,,,0.02,WUHU21623XXSP,2013-10-20 18:31:00,
2013-10-20 14:36:00,58.1,43.4,29.68,SSW,194,1.1,4.0,58,0.00,,,0.02,WUHU21623XXSP,2013-10-20 18:36:00,
2013-10-20 14:41:00,58.3,44.0,29.68,SE,135,0.0,4.0,59,0.00,,,0.02,WUHU21623XXSP,2013-10-20 18:41:00,
2013-10-20 14:46:00,58.3,43.6,29.68,SSE,157,1.5,2.9,58,0.00,,,0.02,WUHU21623XXSP,2013-10-20 18:46:00,
2013-10-20 14:51:00,58.3,44.0,29.67,SSW,209,2.6,4.9,59,0.00,,,0.02,WUHU21623XXSP,2013-10-20 18:51:00,
2013-10-20 14:56:00,58.8,44.0,29.67,SSW,198,3.1,5.1,58,0.00,,,0.02,WUHU21623XXSP,2013-10-20 18:56:00,
2013-10-20 15:01:00,59.2,44.4,29.67,SSW,202,1.8,6.3,58,0.00,,,0.02,WUHU21623XXSP,2013-10-20 19:01:00,
2013-10-20 15:06:00,59.7,44.0,29.67,SW,222,3.6,6.7,56,0.00,,,0.02,WUHU21623XXSP,2013-10-20 19:06:00,
2013-10-20 15:11:00,59.7,43.5,29.67,SSW,202,4.4,6.7,55,0.00,,,0.02,WUHU21623XXSP,2013-10-20 19:11:00,
2013-10-20 15:40:00,58.6,43.5,29.67,SSW,203,1.6,1.6,57,0.00,,,0.02,WUHU21623XXSP,2013-10-20 19:40:00,
2013-10-20 16:05:00,57.7,43.1,29.66,SSW,202,5.6,5.6,58,0.00,,,0.02,WUHU21623XXSP,2013-10-20 20:05:00,
2013-10-20 16:10:00,57.6,43.4,29.65,SSW,203,3.1,7.8,59,0.00,,,0.02,WUHU21623XXSP,2013-10-20 20:10:00,
2013-10-20 16:15:00,57.6,43.4,29.66,SW,225,9.2,9.2,59,0.00,,,0.02,WUHU21623XXSP,2013-10-20 20:15:00,
2013-10-20 16:20:00,57.6,43.4,29.65,South,180,2.9,9.2,59,0.00,,,0.02,WUHU21623XXSP,2013-10-20 20:20:00,
2013-10-20 16:25:00,57.6,43.8,29.65,SW,214,4.1,7.8,60,0.00,,,0.02,WUHU21623XXSP,2013-10-20 20:25:00,
2013-10-20 16:30:00,57.6,43.8,29.65,SSE,157,2.8,7.8,60,0.00,,,0.02,WUHU21623XXSP,2013-10-20 20:30:00,
2013-10-20 16:35:00,57.6,43.8,29.64,SSE,162,1.5,7.8,60,0.00,,,0.02,WUHU21623XXSP,2013-10-20 20:35:00,
2013-10-20 16:40:00,57.6,43.8,29.64,SSW,197,2.2,7.8,60,0.00,,,0.02,WUHU21623XXSP,2013-10-20 20:40:00,
2013-10-20 16:45:00,57.4,44.1,29.64,SSW,192,3.2,6.7,61,0.00,,,0.02,WUHU21623XXSP,2013-10-20 20:45:00,
2013-10-20 16:50:00,57.6,44.2,29.64,SSW,193,1.9,6.7,61,0.00,,,0.02,WUHU21623XXSP,2013-10-20 20:50:00,
2013-10-20 16:55:00,57.4,44.1,29.64,SSW,201,2.3,7.6,61,0.00,,,0.02,WUHU21623XXSP,2013-10-20 20:55:00,
2013-10-20 17:00:00,57.4,44.1,29.65,ESE,110,2.5,7.6,61,0.00,,,0.02,WUHU21623XXSP,2013-10-20 21:00:00,
2013-10-20 17:05:00,57.4,44.1,29.64,South,185,1.5,6.5,61,0.00,,,0.02,WUHU21623XXSP,2013-10-20 21:05:00,
2013-10-20 17:10:00,57.4,44.5,29.64,SW,225,3.6,5.1,62,0.00,,,0.02,WUHU21623XXSP,2013-10-20 21:10:00,
2013-10-20 17:15:00,57.4,44.5,29.64,South,169,2.9,6.0,62,0.00,,,0.02,WUHU21623XXSP,2013-10-20 21:15:00,
2013-10-20 17:20:00,57.6,44.6,29.63,SSW,207,2.3,6.0,62,0.00,,,0.02,WUHU21623XXSP,2013-10-20 21:20:00,
2013-10-20 17:25:00,57.6,44.6,29.64,SSW,210,2.5,4.7,62,0.00,,,0.02,WUHU21623XXSP,2013-10-20 21:25:00,
2013-10-20 17:36:00,57.7,45.2,29.63,SE,135,0.0,5.4,63,0.00,,,0.02,WUHU21623XXSP,2013-10-20 21:36:00,
2013-10-20 17:41:00,57.7,45.2,29.63,East,95,1.0,3.8,63,0.00,,,0.02,WUHU21623XXSP,2013-10-20 21:41:00,
2013-10-20 17:50:00,57.7,45.2,29.63,SSE,157,2.9,2.9,63,0.00,,,0.02,WUHU21623XXSP,2013-10-20 21:50:00,
2013-10-20 17:55:00,57.7,45.6,29.62,SE,135,0.9,2.9,64,0.00,,,0.02,WUHU21623XXSP,2013-10-20 21:55:00,
2013-10-20 18:00:00,57.7,45.6,29.62,SSE,157,0.0,5.1,64,0.00,,,0.02,WUHU21623XXSP,2013-10-20 22:00:00,
2013-10-20 18:05:00,57.7,45.6,29.62,SE,135,0.0,5.1,64,0.00,,,0.02,WUHU21623XXSP,2013-10-20 22:05:00,
2013-10-20 18:10:00,57.6,45.4,29.61,South,184,1.5,4.3,64,0.00,,,0.02,WUHU21623XXSP,2013-10-20 22:10:00,
2013-10-20 18:15:00,57.4,45.3,29.61,SSW,202,0.0,2.2,64,0.00,,,0.02,WUHU21623XXSP,2013-10-20 22:15:00,
2013-10-20 18:20:00,57.4,45.3,29.61,South,180,0.0,2.2,64,0.00,,,0.02,WUHU21623XXSP,2013-10-20 22:20:00,
2013-10-20 18:25:00,57.2,45.1,29.61,SSE,157,1.1,2.5,64,0.00,,,0.02,WUHU21623XXSP,2013-10-20 22:25:00,
2013-10-20 18:29:00,57.0,45.3,29.61,SSW,200,0.9,2.5,65,0.00,,,0.02,WUHU21623XXSP,2013-10-20 22:29:00,
2013-10-20 18:35:00,57.0,45.7,29.61,SSW,202,0.0,1.1,66,0.00,,,0.02,WUHU21623XXSP,2013-10-20 22:35:00,
2013-10-20 18:39:00,56.8,45.6,29.61,South,180,0.0,0.9,66,0.00,,,0.02,WUHU21623XXSP,2013-10-20 22:39:00,
2013-10-20 18:44:00,56.7,45.8,29.60,South,180,3.1,4.3,67,0.00,,,0.02,WUHU21623XXSP,2013-10-20 22:44:00,
2013-10-20 18:49:00,56.3,45.4,29.60,SSW,202,53.7,53.7,67,0.00,,,0.02,WUHU21623XXSP,2013-10-20 22:49:00,
2013-10-20 18:54:00,56.1,45.3,29.59,West,270,0.9,53.7,67,0.00,,,0.02,WUHU21623XXSP,2013-10-20 22:54:00,
2013-10-20 18:59:00,55.9,45.1,29.59,ESE,108,1.1,1.6,67,0.00,,,0.02,WUHU21623XXSP,2013-10-20 22:59:00,
2013-10-20 19:04:00,55.9,45.5,29.60,WSW,248,0.9,2.2,68,0.00,,,0.02,WUHU21623XXSP,2013-10-20 23:04:00,
2013-10-20 19:09:00,55.9,45.1,29.60,West,261,8.1,34.0,67,0.00,,,0.02,WUHU21623XXSP,2013-10-20 23:09:00,
2013-10-20 19:14:00,55.8,44.9,29.60,South,184,1.7,34.0,67,0.00,,,0.02,WUHU21623XXSP,2013-10-20 23:14:00,
2013-10-20 19:19:00,55.9,45.1,29.60,SE,135,2.2,4.7,67,0.00,,,0.02,WUHU21623XXSP,2013-10-20 23:19:00,
2013-10-20 19:24:00,55.9,45.1,29.60,SSW,211,1.8,4.7,67,0.00,,,0.02,WUHU21623XXSP,2013-10-20 23:24:00,
2013-10-20 19:29:00,55.9,44.7,29.60,SSW,204,3.4,12.3,66,0.00,,,0.02,WUHU21623XXSP,2013-10-20 23:29:00,
2013-10-20 19:34:00,56.1,44.9,29.60,South,180,1.3,12.3,66,0.00,,,0.02,WUHU21623XXSP,2013-10-20 23:34:00,
2013-10-20 19:39:00,56.1,44.9,29.60,ESE,119,1.8,4.3,66,0.00,,,0.02,WUHU21623XXSP,2013-10-20 23:39:00,
2013-10-20 19:44:00,56.5,45.2,29.60,South,180,3.6,8.3,66,0.00,,,0.02,WUHU21623XXSP,2013-10-20 23:44:00,
2013-10-20 19:49:00,56.5,45.2,29.60,SSW,202,11.9,11.9,66,0.00,,,0.02,WUHU21623XXSP,2013-10-20 23:49:00,
2013-10-20 19:54:00,56.7,45.0,29.60,SW,225,3.1,11.9,65,0.00,,,0.02,WUHU21623XXSP,2013-10-20 23:54:00,
2013-10-20 19:59:00,56.8,45.2,29.61,SSW,202,6.7,10.3,65,0.00,,,0.02,WUHU21623XXSP,2013-10-20 23:59:00,
2013-10-20 20:04:00,57.0,44.9,29.61,WSW,237,2.4,10.7,64,0.00,,,0.02,WUHU21623XXSP,2013-10-21 00:04:00,
2013-10-20 20:09:00,57.0,44.9,29.61,SW,225,8.1,10.7,64,0.00,,,0.02,WUHU21623XXSP,2013-10-21 00:09:00,
2013-10-20 20:14:00,57.4,44.9,29.61,SSW,202,5.1,9.2,63,0.00,,,0.02,WUHU21623XXSP,2013-10-21 00:14:00,
2013-10-20 20:19:00,57.6,45.0,29.60,SSW,213,3.3,8.1,63,0.00,,,0.02,WUHU21623XXSP,2013-10-21 00:19:00,
2013-10-20 20:24:00,57.6,45.0,29.60,South,180,11.4,13.2,63,0.00,,,0.02,WUHU21623XXSP,2013-10-21 00:24:00,
2013-10-20 20:29:00,57.7,44.8,29.60,SSE,157,6.3,13.2,62,0.00,,,0.02,WUHU21623XXSP,2013-10-21 00:29:00,
2013-10-20 20:34:00,57.9,45.0,29.60,SW,225,6.0,12.3,62,0.00,,,0.02,WUHU21623XXSP,2013-10-21 00:34:00,
2013-10-20 20:39:00,57.9,45.0,29.60,South,185,3.8,12.3,62,0.00,,,0.02,WUHU21623XXSP,2013-10-21 00:39:00,
2013-10-20 20:44:00,57.9,45.0,29.60,SSW,200,5.8,11.2,62,0.00,,,0.02,WUHU21623XXSP,2013-10-21 00:44:00,
2013-10-20 20:49:00,57.9,44.6,29.60,SSW,192,5.7,15.2,61,0.00,,,0.02,WUHU21623XXSP,2013-10-21 00:49:00,
2013-10-20 20:54:00,58.1,44.7,29.60,SW,225,6.7,15.2,61,0.00,,,0.02,WUHU21623XXSP,2013-10-21 00:54:00,
2013-10-20 20:59:00,58.1,44.7,29.60,SSE,157,17.2,17.2,61,0.00,,,0.02,WUHU21623XXSP,2013-10-21 00:59:00,
2013-10-20 21:04:00,58.1,44.7,29.60,SSW,195,7.4,20.1,61,0.00,,,0.02,WUHU21623XXSP,2013-10-21 01:04:00,
2013-10-20 21:09:00,58.1,44.7,29.60,SW,225,6.5,20.1,61,0.00,,,0.02,WUHU21623XXSP,2013-10-21 01:09:00,
2013-10-20 21:14:00,58.1,44.7,29.59,South,187,6.6,12.1,61,0.00,,,0.02,WUHU21623XXSP,2013-10-21 01:14:00,
2013-10-20 21:19:00,58.3,44.9,29.59,SW,225,7.8,13.9,61,0.00,,,0.02,WUHU21623XXSP,2013-10-21 01:19:00,
2013-10-20 21:24:00,58.3,44.5,29.60,SSW,203,7.7,17.2,60,0.00,,,0.02,WUHU21623XXSP,2013-10-21 01:24:00,
2013-10-20 21:29:00,58.3,44.5,29.61,SSW,192,5.4,17.2,60,0.00,,,0.02,WUHU21623XXSP,2013-10-21 01:29:00,
2013-10-20 21:34:00,58.5,44.5,29.61,SSW,198,7.0,22.4,60,0.00,,,0.02,WUHU21623XXSP,2013-10-21 01:34:00,
2013-10-20 21:39:00,58.5,44.7,29.62,SW,225,9.2,22.4,60,0.00,,,0.02,WUHU21623XXSP,2013-10-21 01:39:00,
2013-10-20 21:44:00,58.6,44.8,29.62,SSW,202,6.1,16.1,60,0.00,,,0.02,WUHU21623XXSP,2013-10-21 01:44:00,
2013-10-20 21:49:00,58.6,45.2,29.62,South,181,4.4,15.4,61,0.00,,,0.02,WUHU21623XXSP,2013-10-21 01:49:00,
2013-10-20 21:54:00,58.6,45.2,29.61,South,173,4.7,14.3,61,0.00,,,0.02,WUHU21623XXSP,2013-10-21 01:54:00,
2013-10-20 21:59:00,58.5,45.5,29.62,South,180,14.5,14.5,62,0.00,,,0.02,WUHU21623XXSP,2013-10-21 01:59:00,
2013-10-20 22:04:00,58.3,44.9,29.61,WSW,247,7.4,17.2,61,0.00,,,0.02,WUHU21623XXSP,2013-10-21 02:04:00,
2013-10-20 22:09:00,58.1,45.1,29.62,South,180,7.6,17.2,62,0.00,,,0.02,WUHU21623XXSP,2013-10-21 02:09:00,
2013-10-20 22:14:00,58.1,45.1,29.62,SW,225,5.1,45.4,62,0.00,,,0.02,WUHU21623XXSP,2013-10-21 02:14:00,
2013-10-20 22:19:00,57.9,45.0,29.63,SSW,202,10.3,45.4,62,0.00,,,0.02,WUHU21623XXSP,2013-10-21 02:19:00,
2013-10-20 22:24:00,57.9,44.6,29.62,SSE,157,8.9,11.6,61,0.00,,,0.02,WUHU21623XXSP,2013-10-21 02:24:00,
2013-10-20 22:29:00,57.9,44.6,29.63,SSW,202,11.6,15.7,61,0.00,,,0.02,WUHU21623XXSP,2013-10-21 02:29:00,
2013-10-20 22:34:00,57.9,44.6,29.63,SSW,198,7.2,15.7,61,0.00,,,0.02,WUHU21623XXSP,2013-10-21 02:34:00,
2013-10-20 22:39:00,57.9,44.2,29.63,SW,228,7.0,15.0,60,0.00,,,0.02,WUHU21623XXSP,2013-10-21 02:39:00,
2013-10-20 22:44:00,57.9,44.2,29.63,SSE,157,14.1,15.7,60,0.00,,,0.02,WUHU21623XXSP,2013-10-21 02:44:00,
2013-10-20 22:49:00,57.9,44.6,29.63,SW,215,6.5,17.2,61,0.00,,,0.02,WUHU21623XXSP,2013-10-21 02:49:00,
2013-10-20 22:54:00,57.9,44.2,29.63,SSE,157,3.6,17.2,60,0.00,,,0.02,WUHU21623XXSP,2013-10-21 02:54:00,
2013-10-20 22:59:00,57.9,44.6,29.63,SSW,207,5.3,14.3,61,0.00,,,0.02,WUHU21623XXSP,2013-10-21 02:59:00,
2013-10-20 23:04:00,57.9,44.6,29.63,SW,215,5.0,13.2,61,0.00,,,0.02,WUHU21623XXSP,2013-10-21 03:04:00,
2013-10-20 23:09:00,57.9,44.6,29.63,SSW,196,8.5,16.6,61,0.00,,,0.02,WUHU21623XXSP,2013-10-21 03:09:00,
2013-10-20 23:14:00,57.7,44.4,29.63,SSW,210,5.5,16.6,61,0.00,,,0.02,WUHU21623XXSP,2013-10-21 03:14:00,
2013-10-20 23:19:00,57.7,44.4,29.64,South,173,3.5,13.4,61,0.00,,,0.02,WUHU21623XXSP,2013-10-21 03:19:00,
2013-10-20 23:24:00,57.7,44.4,29.63,South,180,3.8,11.6,61,0.00,,,0.02,WUHU21623XXSP,2013-10-21 03:24:00,
2013-10-20 23:29:00,57.6,44.6,29.63,SSW,201,4.6,35.6,62,0.00,,,0.02,WUHU21623XXSP,2013-10-21 03:29:00,
2013-10-20 23:34:00,57.4,44.5,29.64,SSW,202,8.7,35.6,62,0.00,,,0.02,WUHU21623XXSP,2013-10-21 03:34:00,
2013-10-20 23:39:00,57.4,44.5,29.64,East,83,15.8,83.9,62,0.00,,,0.02,WUHU21623XXSP,2013-10-21 03:39:00,
2013-10-20 23:44:00,57.4,44.5,29.64,SW,225,8.1,83.9,62,0.00,,,0.02,WUHU21623XXSP,2013-10-21 03:44:00,
2013-10-20 23:49:00,57.0,44.1,29.64,SSW,192,5.4,8.7,62,0.00,,,0.02,WUHU21623XXSP,2013-10-21 03:49:00,
2013-10-20 23:54:00,57.0,44.5,29.64,South,180,5.8,11.4,63,0.00,,,0.02,WUHU21623XXSP,2013-10-21 03:54:00,
2013-10-20 23:59:00,57.0,44.1,29.64,SW,225,6.3,11.4,62,0.00,,,0.02,WUHU21623XXSP,2013-10-21 03:59:00,